Temperature
-1 -2 -3 -4 -4 -5 -6 -6 -6 -6 -6 -6 -6 -6 -6 -6 -6 -7 -7 -6 -6 -5 -4 -3 -1 -1 0 1 2 3 4 6 8 9 10 11 12 13 14 15 15 16 16
-2 -3 -4 -4 -6 -6 -7 -7 -7 -7 -8 -8 -8 -8 -8 -8 -7 -8 -8 -7 -7 -6 -5 -4 -2 -1 -0 0 1 2 3 4 6 8 9 11 11 12 13 14 15 15 16
-3 -4 -5 -5 -6 -7 -7 -8 -8 -8 -8 -9 -9 -9 -9 -9 -9 -9 -9 -8 -8 -7 -6 -4 -3 -2 -1 -0 1 1 2 3 4 6 8 9 11 12 13 14 15 15 15
-4 -5 -5 -6 -7 -8 -8 -8 -9 -9 -9 -9 -10 -10 -10 -10 -9 -9 -9 -9 -9 -8 -7 -6 -4 -3 -2 -1 0 1 2 2 3 5 6 8 10 11 12 13 14 15 15
-4 -5 -6 -7 -8 -8 -8 -9 -9 -9 -10 -10 -10 -10 -10 -10 -10 -10 -10 -10 -9 -8 -7 -6 -5 -4 -2 -1 -0 0 1 2 2 4 5 7 8 10 11 12 13 14 15
-5 -6 -7 -7 -8 -9 -9 -9 -9 -10 -10 -10 -10 -10 -10 -10 -10 -10 -10 -10 -9 -9 -7 -6 -5 -4 -3 -2 -1 -0 0 1 2 3 4 6 7 9 10 12 13 14 14
-6 -6 -7 -8 -9 -9 -9 -9 -10 -10 -10 -10 -10 -11 -11 -10 -10 -11 -10 -10 -10 -9 -8 -7 -6 -5 -4 -3 -2 -1 -0 0 1 2 3 4 6 8 10 11 12 13 14
-6 -7 -8 -8 -9 -9 -9 -10 -10 -10 -10 -10 -11 -11 -11 -11 -10 -10 -11 -11 -10 -10 -9 -8 -7 -6 -5 -4 -3 -3 -2 -1 0 1 2 3 5 7 9 10 12 13 14
-7 -7 -8 -9 -9 -10 -10 -10 -10 -10 -10 -10 -10 -11 -11 -11 -11 -11 -11 -11 -11 -10 -9 -8 -7 -6 -5 -4 -4 -3 -3 -2 -1 0 1 3 4 6 8 10 11 12 13
-7 -8 -8 -9 -9 -10 -10 -10 -10 -10 -11 -11 -10 -11 -11 -11 -11 -11 -11 -10 -11 -10 -10 -9 -8 -7 -6 -5 -4 -4 -3 -2 -1 -0 1 2 3 5 7 9 10 12 13
-7 -8 -9 -9 -10 -10 -10 -10 -10 -10 -10 -11 -11 -11 -11 -11 -11 -11 -11 -10 -10 -9 -9 -9 -8 -7 -6 -5 -4 -4 -3 -2 -2 -1 0 1 3 4 6 8 9 11 12
-7 -8 -9 -9 -10 -10 -10 -11 -11 -10 -10 -11 -11 -11 -11 -11 -11 -11 -11 -11 -11 -10 -9 -9 -8 -7 -6 -5 -4 -4 -3 -3 -2 -1 -0 1 2 4 5 7 9 10 12
-7 -8 -9 -10 -10 -10 -11 -11 -11 -11 -11 -11 -11 -11 -11 -11 -11 -11 -11 -11 -10 -10 -9 -9 -8 -7 -7 -6 -5 -4 -4 -3 -3 -2 -1 -0 1 3 5 6 8 10 11
-7 -8 -9 -10 -10 -11 -11 -11 -11 -11 -11 -11 -11 -11 -11 -11 -11 -11 -11 -11 -10 -10 -9 -9 -8 -8 -7 -6 -6 -5 -4 -4 -3 -2 -2 -0 1 2 4 6 8 9 11
-8 -8 -9 -10 -10 -11 -11 -11 -11 -11 -11 -11 -11 -11 -11 -11 -11 -11 -11 -11 -10 -10 -9 -9 -9 -8 -8 -7 -6 -6 -5 -4 -4 -3 -2 -1 1 2 4 5 7 9 10
-7 -8 -9 -10 -10 -11 -11 -11 -11 -11 -11 -11 -11 -11 -11 -11 -11 -11 -11 -11 -10 -10 -10 -9 -9 -9 -8 -8 -7 -6 -5 -5 -4 -3 -2 -1 0 2 3 5 6 8 9
-7 -8 -9 -10 -10 -11 -11 -12 -11 -11 -11 -11 -11 -11 -12 -12 -12 -12 -11 -11 -11 -10 -10 -10 -9 -9 -8 -8 -7 -6 -6 -5 -4 -3 -2 -1 0 1 3 5 6 7 9
-7 -8 -9 -9 -10 -11 -11 -11 -11 -11 -11 -11 -11 -11 -12 -12 -12 -12 -11 -11 -11 -11 -11 -11 -10 -9 -9 -8 -8 -7 -6 -5 -4 -3 -2 -1 0 1 3 4 6 7 9
-7 -8 -9 -9 -10 -10 -11 -11 -11 -11 -11 -11 -11 -11 -12 -12 -12 -12 -11 -11 -11 -11 -11 -11 -11 -10 -10 -9 -8 -7 -6 -5 -4 -3 -2 -1 0 1 3 4 6 7 8
-7 -8 -9 -9 -9 -10 -10 -10 -10 -10 -10 -10 -11 -11 -12 -12 -12 -12 -11 -11 -11 -11 -11 -11 -11 -11 -10 -10 -9 -8 -7 -5 -4 -3 -2 -1 0 1 3 4 6 7 8
-7 -8 -8 -9 -9 -9 -9 -10 -10 -9 -10 -10 -10 -11 -11 -12 -11 -11 -11 -11 -11 -11 -11 -11 -11 -11 -11 -11 -10 -10 -8 -6 -4 -3 -2 -1 1 2 3 4 5 7 8
-6 -7 -8 -9 -9 -9 -10 -9 -9 -9 -9 -10 -10 -11 -11 -12 -12 -11 -11 -11 -11 -11 -11 -11 -11 -11 -11 -11 -11 -10 -10 -8 -6 -3 -2 -1 0 2 3 4 5 7 8
-6 -7 -8 -9 -9 -9 -9 -9 -8 -8 -9 -10 -10 -11 -11 -12 -12 -12 -12 -12 -12 -12 -12 -11 -11 -12 -11 -11 -11 -10 -10 -9 -7 -4 -3 -1 1 2 3 4 6 7 8
-6 -7 -8 -8 -9 -9 -9 -9 -8 -8 -9 -10 -10 -11 -11 -12 -12 -11 -11 -12 -12 -12 -12 -12 -12 -12 -11 -11 -11 -10 -10 -8 -6 -3 -3 -2 1 2 3 4 5 6 8
-5 -6 -7 -8 -9 -9 -9 -9 -8 -9 -9 -10 -10 -11 -11 -12 -12 -11 -12 -12 -12 -12 -12 -12 -12 -12 -11 -11 -10 -10 -9 -9 -7 -3 -2 -2 1 2 3 4 5 6 7
-5 -6 -7 -8 -9 -9 -9 -9 -8 -9 -9 -10 -10 -11 -12 -12 -11 -11 -12 -12 -12 -12 -12 -12 -12 -12 -11 -11 -11 -10 -10 -9 -8 -5 -2 -1 0 2 3 4 5 6 7
Wind_Speed
12 14 15 17 18 18 17 18 19 19 20 21 22 23 24 26 27 27 26 32 35 36 37 36 36 35 34 32 31 30 29 28 27 26 25 25 24 23 23 25 29 32 32
13 14 14 15 16 16 18 18 18 18 17 18 18 21 23 26 26 27 29 31 35 37 37 37 37 35 34 33 31 30 29 28 27 26 25 25 25 24 23 24 27 31 34
13 14 13 13 15 18 18 18 18 16 14 15 12 18 21 22 25 27 30 29 30 34 36 37 37 35 34 32 31 30 28 27 27 26 25 25 25 24 24 23 25 30 34
13 13 12 13 17 18 17 14 10 6 8 9 10 10 16 19 22 26 28 29 30 29 32 36 36 35 33 31 30 28 27 27 26 26 25 25 25 24 24 23 24 28 33
12 13 13 15 17 16 14 14 8 7 9 10 11 10 8 11 16 24 24 28 30 30 29 32 34 34 32 30 29 28 27 26 26 26 25 24 24 25 25 24 24 26 31
12 13 14 14 16 12 8 7 10 9 8 9 14 14 12 12 13 13 18 22 25 28 28 28 25 25 28 27 26 25 25 25 25 25 25 25 24 24 25 25 24 25 30
12 13 13 13 13 7 7 9 9 10 9 8 10 13 13 12 13 12 12 14 19 26 27 24 20 17 16 21 22 22 23 24 25 25 25 25 25 24 24 25 25 24 28
13 13 12 11 12 8 9 9 9 8 11 9 10 15 14 14 11 13 12 15 17 17 19 22 20 18 15 13 16 21 22 22 23 24 24 25 25 25 24 25 25 25 27
14 13 13 13 12 9 8 9 9 10 12 12 7 8 11 14 18 13 12 14 13 14 16 16 18 17 17 15 14 18 22 22 23 23 24 24 25 26 26 25 25 25 26
13 13 14 13 12 11 8 9 9 9 11 13 11 7 9 12 13 16 12 10 14 15 15 15 15 16 17 15 16 20 22 22 22 22 23 23 24 25 25 25 25 25 25
12 14 14 12 12 11 10 9 9 10 9 11 12 12 13 12 12 12 17 18 15 13 13 15 14 13 16 15 14 18 22 22 21 21 22 22 23 23 24 24 24 23 24
8 12 13 13 14 12 10 9 8 11 10 11 10 11 12 12 13 12 14 17 16 16 15 13 13 12 13 14 17 20 21 21 20 20 21 22 22 22 22 22 22 21 22
5 6 11 11 13 13 13 12 8 10 11 11 10 10 11 11 12 13 13 15 16 15 14 12 11 10 12 12 12 18 18 19 19 21 21 21 22 21 21 21 20 20 20
6 10 12 13 15 14 14 12 8 10 10 9 12 11 10 11 11 12 12 13 14 13 11 12 10 10 9 12 16 20 13 19 20 20 21 22 22 21 21 20 19 18 16
9 11 13 12 13 12 12 10 7 10 10 9 10 10 9 10 10 10 11 11 11 14 14 11 10 11 10 11 17 14 11 18 21 22 23 23 22 22 21 20 18 17 15
9 9 9 10 10 10 10 7 9 10 10 10 8 10 10 10 10 10 11 11 10 11 13 11 12 12 13 14 19 15 14 22 23 23 24 24 23 22 22 20 18 16 14
8 7 8 8 8 8 7 8 10 12 11 11 10 10 12 12 10 10 11 11 10 10 13 13 11 12 14 13 13 11 13 12 14 22 24 24 24 23 22 21 19 17 14
8 9 9 9 10 10 9 9 12 12 12 12 12 11 12 12 12 11 11 12 11 10 11 15 13 12 13 13 12 12 12 12 11 20 23 24 24 23 22 21 19 16 14
7 8 8 9 10 10 10 11 12 13 14 13 12 12 12 12 13 12 12 12 11 11 9 12 13 11 11 11 12 12 13 11 13 15 20 21 22 22 22 21 19 16 13
9 9 9 10 10 10 12 13 14 14 15 14 13 13 12 12 13 13 12 12 12 11 9 10 11 11 10 10 10 10 12 11 11 12 14 15 17 20 21 21 19 16 14
11 9 10 10 10 11 12 15 14 14 13 13 12 12 12 16 19 16 14 13 12 9 10 11 11 11 10 9 10 10 12 12 13 8 7 9 9 9 11 17 18 15 14
10 10 9 9 11 13 22 28 21 11 11 11 10 10 11 13 17 22 25 23 20 13 11 10 10 11 11 10 10 11 11 11 8 6 7 9 8 8 9 10 14 15 14
10 10 9 9 12 16 26 27 27 15 10 9 9 8 10 11 15 11 17 20 18 22 21 14 12 11 12 11 11 12 11 11 12 10 10 8 7 8 8 11 16 16 15
9 9 9 10 11 16 25 26 26 12 9 8 8 8 9 9 12 15 10 9 10 11 16 12 10 11 12 11 11 11 12 12 13 12 10 6 6 6 7 7 14 16 15
8 8 8 9 10 13 22 25 23 7 7 8 8 8 9 8 18 22 12 11 12 11 15 19 20 18 19 18 14 8 7 8 8 6 4 5 4 4 5 5 9 14 15
8 8 8 8 9 10 19 24 23 6 7 7 7 8 13 16 20 21 10 10 13 12 12 13 14 15 12 13 15 8 6 7 6 5 3 4 3 2 3 3 5 8 9
Wind_Direction
341 336 331 328 327 328 331 328 321 319 320 319 318 318 317 315 312 309 306 304 302 299 295 292 288 286 284 281 279 278 277 276 276 275 276 277 279 276 263 244 224 211 204
340 332 327 323 321 326 325 318 315 315 313 312 313 314 312 309 307 307 306 304 301 297 294 290 286 283 281 278 275 274 273 272 271 272 272 272 274 275 269 252 234 217 206
336 330 320 317 318 321 318 314 311 309 310 313 310 307 306 305 304 303 303 301 298 295 291 288 284 281 277 274 271 270 269 269 269 269 269 270 270 271 270 260 242 224 211
329 326 317 313 314 317 314 309 303 308 307 304 302 301 302 301 301 302 301 299 297 293 289 286 283 279 276 273 270 267 267 267 267 267 267 268 268 268 267 263 248 231 216
324 323 315 307 313 314 308 309 317 305 303 304 303 300 299 302 301 300 299 298 296 293 287 282 279 276 273 271 268 267 266 266 265 265 266 269 269 266 265 262 253 236 221
320 319 308 307 311 307 303 303 303 300 299 302 307 307 301 296 298 296 297 301 304 302 294 284 278 274 271 269 267 265 264 264 264 264 265 267 270 269 264 260 255 242 226
314 308 301 304 305 301 298 298 302 305 305 303 308 309 304 293 291 295 297 305 305 305 301 296 289 282 276 274 274 272 268 264 263 262 263 265 267 271 268 261 255 248 232
303 304 301 300 300 297 298 299 303 304 309 312 310 312 311 309 302 305 301 298 299 301 303 301 298 293 286 278 275 274 273 269 266 264 263 264 265 267 270 263 255 249 237
300 299 299 298 297 297 296 299 302 308 311 309 298 301 306 307 312 303 296 295 297 300 298 297 293 290 285 277 271 273 272 270 267 265 264 264 264 263 266 265 258 250 241
305 304 300 300 301 298 293 301 313 306 306 309 308 293 285 291 300 307 308 296 298 300 302 303 304 301 294 285 276 272 270 267 266 266 265 265 264 261 262 262 259 253 244
303 302 301 305 301 298 295 297 301 301 302 301 306 307 303 300 290 293 302 307 308 303 302 303 302 297 292 286 278 272 270 268 266 267 268 269 269 264 262 262 262 257 248
295 298 304 307 302 297 296 297 300 302 301 299 304 305 304 303 303 299 296 299 302 302 302 300 297 294 291 285 278 275 273 270 269 270 272 272 274 273 269 267 267 265 255
292 290 305 301 297 295 300 304 305 302 300 302 306 308 308 304 300 297 295 296 297 298 299 298 297 297 298 299 292 284 280 277 273 270 270 272 273 276 275 272 275 271 264
283 292 299 297 296 300 307 306 302 300 301 301 307 306 308 309 310 305 299 299 302 302 302 299 303 301 310 311 305 300 293 286 280 275 272 272 272 272 275 273 276 274 276
289 298 299 295 296 299 301 302 297 298 297 297 300 302 307 308 309 310 308 303 302 308 311 309 312 309 311 308 305 303 296 288 281 276 272 270 269 268 270 271 271 272 271
291 293 293 295 296 296 298 297 297 295 296 296 298 301 305 307 309 309 310 310 306 303 303 306 309 308 310 310 307 310 305 296 286 278 271 268 266 264 267 266 266 266 263
289 288 292 294 296 296 293 294 294 297 294 295 297 300 301 304 305 309 309 309 308 307 305 308 307 307 307 306 303 302 299 291 285 279 272 266 262 258 260 258 259 259 257
288 289 292 295 298 299 292 289 292 296 291 291 291 293 295 303 302 303 304 306 305 303 306 310 311 311 307 306 304 306 304 297 286 278 272 266 260 254 253 250 250 251 249
286 289 292 293 293 293 290 285 282 282 282 280 280 284 286 292 295 298 300 302 303 307 303 303 307 309 308 312 316 313 309 300 292 282 274 267 260 252 247 245 244 244 239
288 287 285 286 289 291 289 283 278 275 275 272 272 275 279 283 285 290 300 305 308 307 304 304 305 307 309 315 322 323 319 314 304 293 279 273 264 251 243 239 236 234 230
288 282 283 286 289 292 289 283 278 278 274 271 270 270 277 292 303 310 314 313 313 311 311 306 305 308 310 318 319 318 314 314 305 282 286 278 271 250 232 234 230 225 221
282 282 281 285 292 296 299 304 311 306 297 286 282 276 281 293 304 317 317 320 325 321 313 307 305 304 304 304 306 306 309 311 308 319 326 295 275 254 229 219 214 211 210
286 284 283 285 288 294 304 310 319 329 315 299 289 286 296 304 315 301 310 323 323 320 317 310 303 296 294 293 293 295 294 294 286 291 304 285 264 252 235 220 205 204 203
280 282 285 286 289 298 311 317 326 333 313 301 292 288 289 293 305 312 320 319 308 306 308 308 295 290 289 284 276 278 285 291 286 273 251 259 260 249 238 212 200 197 198
285 287 287 289 293 304 316 322 334 324 317 313 308 309 314 304 314 327 335 322 317 313 322 324 321 318 315 313 308 298 293 296 295 288 262 248 260 250 229 204 197 194 194
289 295 298 298 301 304 318 329 337 329 321 324 323 325 329 326 328 335 336 324 321 326 332 326 322 318 312 307 310 301 284 281 282 286 305 317 283 266 213 195 186 187 190
Height
1550 1546 1541 1537 1534 1530 1526 1522 1518 1515 1511 1507 1504 1500 1495 1490 1485 1481 1477 1474 1472 1470 1468 1467 1467 1466 1466 1466 1467 1468 1469 1471 1474 1478 1482 1485 1489 1493 1498 1502 1508 1513 1518
1546 1542 1538 1534 1530 1527 1523 1519 1515 1511 1507 1503 1499 1496 1491 1486 1480 1475 1471 1466 1463 1460 1459 1458 1457 1458 1458 1458 1459 1460 1461 1463 1466 1469 1473 1477 1481 1485 1490 1494 1500 1505 1511
1543 1539 1535 1531 1527 1524 1520 1516 1512 1508 1504 1500 1495 1490 1485 1480 1475 1470 1464 1459 1455 1451 1449 1448 1448 1448 1449 1450 1450 1452 1453 1455 1457 1461 1464 1468 1472 1477 1481 1486 1492 1498 1504
1540 1536 1532 1528 1524 1521 1517 1512 1508 1504 1500 1495 1490 1485 1480 1475 1470 1464 1458 1453 1448 1443 1441 1439 1439 1439 1440 1441 1442 1443 1445 1447 1449 1452 1455 1459 1463 1468 1473 1478 1484 1489 1496
1537 1533 1529 1525 1521 1518 1513 1510 1505 1501 1496 1490 1485 1480 1474 1469 1463 1458 1452 1446 1441 1437 1433 1431 1430 1430 1431 1432 1433 1435 1436 1438 1441 1443 1447 1450 1455 1459 1464 1470 1475 1481 1488
1534 1530 1526 1522 1518 1514 1510 1506 1501 1497 1492 1487 1481 1474 1468 1462 1457 1451 1446 1440 1434 1429 1426 1424 1423 1422 1423 1424 1425 1427 1428 1430 1432 1435 1438 1441 1446 1451 1456 1461 1467 1473 1479
1531 1527 1522 1519 1515 1511 1507 1503 1498 1493 1488 1483 1477 1468 1461 1456 1450 1445 1440 1434 1428 1423 1419 1417 1416 1415 1415 1416 1417 1418 1420 1422 1424 1427 1429 1433 1437 1441 1447 1453 1458 1464 1471
1528 1524 1520 1516 1512 1507 1503 1499 1495 1490 1484 1480 1474 1465 1456 1448 1443 1439 1434 1428 1422 1417 1412 1409 1408 1407 1408 1408 1409 1411 1412 1414 1416 1419 1421 1424 1428 1432 1438 1444 1450 1456 1462
1525 1521 1516 1512 1508 1504 1500 1496 1492 1487 1480 1475 1471 1466 1457 1446 1437 1429 1426 1421 1417 1412 1408 1404 1402 1402 1402 1402 1403 1404 1405 1407 1409 1411 1414 1416 1419 1424 1429 1435 1441 1447 1453
1521 1517 1513 1509 1505 1501 1496 1492 1488 1483 1478 1471 1466 1461 1456 1448 1439 1427 1419 1415 1412 1407 1403 1400 1397 1396 1396 1396 1397 1397 1398 1400 1401 1403 1406 1408 1412 1416 1421 1426 1432 1438 1444
1517 1513 1509 1505 1501 1496 1492 1488 1484 1479 1474 1469 1463 1456 1450 1443 1437 1430 1419 1410 1405 1401 1399 1396 1393 1391 1390 1390 1390 1391 1392 1393 1394 1396 1398 1400 1404 1408 1413 1418 1424 1429 1435
1512 1509 1505 1501 1496 1492 1488 1484 1479 1475 1470 1465 1459 1454 1447 1440 1433 1427 1419 1410 1403 1397 1394 1391 1389 1387 1386 1385 1385 1385 1386 1386 1387 1388 1390 1392 1395 1399 1404 1409 1415 1420 1426
1508 1504 1500 1496 1492 1488 1484 1479 1474 1470 1465 1460 1455 1449 1444 1438 1431 1424 1417 1409 1402 1395 1391 1388 1385 1383 1381 1379 1379 1379 1379 1380 1380 1381 1383 1384 1387 1390 1395 1400 1405 1411 1417
1504 1500 1496 1491 1487 1483 1479 1474 1470 1465 1461 1456 1451 1445 1439 1433 1428 1422 1415 1408 1400 1392 1388 1384 1381 1379 1376 1374 1373 1373 1373 1373 1373 1374 1375 1377 1379 1382 1387 1391 1397 1402 1409
1500 1496 1491 1487 1483 1478 1474 1469 1464 1460 1456 1451 1446 1440 1435 1429 1423 1418 1412 1407 1402 1393 1385 1380 1378 1374 1372 1369 1368 1367 1366 1366 1366 1367 1368 1370 1372 1375 1379 1384 1389 1395 1401
1496 1491 1487 1483 1478 1473 1469 1464 1459 1455 1451 1446 1441 1436 1430 1424 1418 1413 1408 1403 1399 1393 1384 1378 1374 1370 1367 1365 1363 1361 1359 1358 1358 1359 1361 1362 1365 1368 1371 1376 1382 1388 1394
1492 1487 1483 1478 1473 1469 1464 1459 1454 1450 1446 1441 1436 1431 1425 1420 1414 1408 1403 1399 1394 1390 1382 1375 1371 1366 1363 1360 1356 1354 1352 1351 1350 1351 1353 1355 1357 1360 1364 1369 1374 1380 1386
1487 1483 1478 1474 1469 1464 1459 1454 1449 1445 1440 1435 1431 1426 1421 1415 1410 1404 1399 1394 1390 1385 1380 1372 1365 1362 1358 1355 1352 1349 1346 1345 1344 1344 1346 1348 1350 1353 1357 1362 1367 1373 1380
1483 1479 1474 1470 1464 1459 1454 1449 1444 1439 1434 1429 1425 1420 1415 1411 1405 1400 1395 1390 1385 1380 1375 1369 1362 1358 1354 1351 1347 1343 1340 1338 1337 1338 1339 1341 1343 1346 1350 1354 1360 1366 1373
1479 1474 1470 1465 1460 1455 1450 1444 1439 1433 1428 1423 1418 1414 1410 1406 1401 1396 1391 1386 1380 1374 1369 1364 1358 1353 1349 1346 1343 1338 1334 1332 1331 1331 1332 1334 1337 1340 1343 1348 1353 1360 1366
1475 1470 1465 1461 1456 1451 1445 1440 1434 1428 1423 1417 1412 1408 1405 1401 1397 1393 1388 1382 1376 1370 1364 1359 1354 1349 1345 1342 1339 1335 1331 1327 1326 1327 1327 1328 1330 1333 1336 1341 1346 1353 1360
1470 1466 1461 1457 1452 1447 1442 1437 1432 1425 1419 1413 1407 1403 1400 1396 1392 1388 1383 1378 1373 1366 1360 1355 1350 1345 1341 1338 1334 1331 1328 1325 1322 1323 1322 1322 1325 1327 1330 1335 1340 1347 1354
1466 1461 1457 1453 1448 1443 1438 1434 1428 1422 1416 1410 1404 1399 1395 1392 1388 1382 1377 1372 1367 1362 1358 1352 1346 1341 1336 1333 1330 1326 1324 1321 1318 1317 1318 1316 1319 1321 1324 1328 1334 1341 1348
1462 1458 1453 1449 1444 1440 1436 1431 1425 1419 1413 1407 1401 1396 1392 1387 1383 1378 1372 1366 1361 1356 1352 1346 1341 1336 1332 1328 1326 1323 1320 1316 1313 1313 1314 1313 1313 1316 1319 1323 1328 1335 1342
1459 1455 1450 1445 1441 1437 1432 1428 1422 1416 1410 1404 1399 1393 1389 1384 1380 1375 1369 1362 1356 1351 1346 1341 1336 1331 1327 1323 1321 1319 1316 1313 1310 1308 1310 1310 1309 1312 1314 1318 1323 1329 1337
1456 1451 1447 1443 1438 1434 1430 1425 1420 1413 1407 1401 1396 1391 1386 1381 1377 1372 1366 1360 1353 1347 1341 1335 1330 1325 1321 1318 1315 1313 1311 1309 1307 1305 1305 1306 1305 1307 1310 1313 1318 1324 1332